Rutherfordton, NC

10:06 AM EDT on September 21, 2017 (GMT -0400)
Rutherford County-Marchman

Weather History for KFQD - December, 2012

Change the Weather History Date:

Monday, December 24, 2012

  Actual Average (KAVL) Record (KAVL)
Temperature  
Mean Temperature 42 °F -  
Max Temperature 45 °F 47 °F 72 °F (1955)
Min Temperature 40 °F 28 °F -5 °F (1983)
Degree Days  
Heating Degree Days 22    
Moisture  
Dew Point 41 °F    
Average Humidity 94    
Maximum Humidity 100    
Minimum Humidity 57    
Precipitation  
Precipitation 0.41 in - - ()
Sea Level Pressure  
Sea Level Pressure 29.95 in    
Wind  
Wind Speed 1 mph (SE)    
Max Wind Speed 7 mph    
Max Gust Speed -    
Visibility 4 miles    
Events Fog , Rain    
Averages and records for this station are not official NWS values.
T = Trace of Precipitation, MM = Missing Value Source: NWS Daily Summary

Daily Weather History Graph

Daily Weather History Graph

Search for Another Location

Airport or City:

Trip Planner

Search our weather history database for the weather conditions in past years. The results will help you decide how hot, cold, wet, or windy it might be!

Date:

Astronomy

Dec. 24, 2012 Rise Set
Actual Time 7:34 AM EST 5:20 PM EST
Civil Twilight 7:06 AM EST 5:49 PM EST
Nautical Twilight 6:34 AM EST 6:20 PM EST
Astronomical Twilight 6:03 AM EST 6:51 PM EST
Moon 2:44 PM EST (12/24) 4:14 AM EST (12/24)
Length of Visible Light 10h 42m
Length of Day
9h 46m
Waxing Gibbous, 88% of the Moon is Illuminated
Dec 24
Waxing Gibbous
Dec 28
Full
Jan 4
Last Quarter
Jan 11
New
Jan 18
First Quarter

Hourly Weather History & Observations

Time (EST) Temp. Windchill Dew Point Humidity Pressure Visibility Wind Dir Wind Speed Gust Speed Precip Events Conditions
12:15 AM 45.0 °F - 30.6 °F 57% 30.02 in 10.0 mi Calm Calm - N/A   Overcast
12:35 AM 44.1 °F - 30.4 °F 59% 30.02 in 10.0 mi Calm Calm - N/A   Overcast
12:55 AM 43.2 °F - 31.1 °F 62% 30.01 in 10.0 mi Calm Calm - N/A   Overcast
1:15 AM 43.7 °F - 30.9 °F 61% 30.01 in 10.0 mi Calm Calm - N/A   Mostly Cloudy
1:35 AM 43.5 °F - 32.0 °F 64% 30.00 in 10.0 mi Calm Calm - N/A   Overcast
1:55 AM 43.9 °F 42.3 °F 32.2 °F 63% 29.99 in 10.0 mi SE 3.5 mph - N/A   Overcast
2:15 AM 44.8 °F - 33.3 °F 64% 30.00 in 10.0 mi Calm Calm - N/A   Mostly Cloudy
2:35 AM 45.1 °F - 33.6 °F 64% 30.00 in 10.0 mi Calm Calm - N/A   Overcast
2:55 AM 41.0 °F - 35.6 °F 81% 30.00 in 10.0 mi Calm Calm - N/A Rain Light Rain
3:15 AM 40.5 °F - 37.4 °F 89% 30.00 in 10.0 mi Calm Calm - 0.01 in Rain Rain
3:35 AM 42.6 °F - 37.6 °F 82% 29.99 in 7.0 mi Calm Calm - 0.03 in Rain Light Rain
3:55 AM 41.7 °F - 40.1 °F 94% 29.99 in 7.0 mi Calm Calm - 0.05 in Rain Light Rain
4:15 AM 41.4 °F 39.4 °F 40.3 °F 96% 29.98 in 7.0 mi NE 3.5 mph - 0.01 in Rain Light Rain
4:35 AM 41.4 °F 39.4 °F 39.2 °F 92% 29.97 in 10.0 mi NE 3.5 mph - 0.02 in Rain Light Rain
4:55 AM 41.2 °F - 39.6 °F 94% 29.97 in 10.0 mi Calm Calm - 0.02 in Rain Rain
5:15 AM 41.2 °F - 40.5 °F 97% 29.98 in 10.0 mi Calm Calm - N/A   Overcast
5:35 AM 41.5 °F - 40.6 °F 97% 29.97 in 10.0 mi Calm Calm - 0.01 in Rain Light Rain
5:55 AM 41.2 °F 38.2 °F 40.6 °F 98% 29.97 in 7.0 mi ESE 4.6 mph - 0.01 in Rain Light Rain
6:15 AM 41.4 °F - 40.5 °F 97% 29.98 in 10.0 mi Calm Calm - 0.01 in Rain Light Rain
6:35 AM 41.2 °F - 40.8 °F 99% 29.98 in 5.0 mi Calm Calm - 0.02 in Rain Rain
6:55 AM 41.9 °F - 39.4 °F 91% 29.97 in 7.0 mi Calm Calm - 0.05 in Rain Light Rain
7:15 AM 41.4 °F 39.4 °F 40.3 °F 96% 29.97 in 7.0 mi East 3.5 mph - 0.02 in Rain Light Rain
7:35 AM 41.2 °F 39.2 °F 40.5 °F 97% 29.97 in 7.0 mi ESE 3.5 mph - 0.04 in Rain Light Rain
7:55 AM 41.0 °F 38.0 °F 40.5 °F 98% 29.96 in 5.0 mi ESE 4.6 mph - 0.08 in Rain Rain
8:15 AM 41.4 °F 38.4 °F 41.0 °F 99% 29.96 in 5.0 mi SE 4.6 mph - 0.01 in Rain Rain
8:35 AM 41.9 °F 40.0 °F 41.4 °F 98% 29.96 in 5.0 mi SE 3.5 mph - 0.02 in Rain Light Rain
8:55 AM 41.9 °F 38.2 °F 41.7 °F 99% 29.96 in 7.0 mi SSE 5.8 mph - 0.03 in Rain Light Rain
9:15 AM 41.9 °F 38.2 °F 41.2 °F 97% 29.96 in 4.0 mi SE 5.8 mph - 0.01 in Rain Rain
9:35 AM 41.2 °F 37.3 °F 40.6 °F 98% 29.97 in 4.0 mi SSE 5.8 mph - 0.05 in Rain Rain
9:55 AM 41.0 °F 37.1 °F 40.3 °F 97% 29.96 in 5.0 mi SSE 5.8 mph - 0.07 in Rain Rain
10:15 AM 40.6 °F 36.7 °F 40.3 °F 99% 29.96 in 5.0 mi SSE 5.8 mph - 0.01 in Rain Light Rain
10:35 AM 41.0 °F 37.1 °F 40.6 °F 99% 29.96 in 5.0 mi SSE 5.8 mph - 0.02 in Rain Rain
10:55 AM 41.0 °F 37.1 °F 40.6 °F 99% 29.96 in 4.0 mi SSE 5.8 mph - 0.03 in Rain Rain
11:15 AM 41.0 °F 39.0 °F 40.8 °F 99% 29.96 in 3.0 mi SSE 3.5 mph - 0.02 in Rain Rain
11:35 AM 41.2 °F 38.2 °F 41.0 °F 99% 29.93 in 2.5 mi SE 4.6 mph - 0.05 in Rain Rain
11:55 AM 41.2 °F 39.2 °F 41.0 °F 99% 29.95 in 5.0 mi South 3.5 mph - 0.06 in   Light Drizzle
12:15 PM 41.4 °F 38.4 °F 41.2 °F 99% 29.92 in 7.0 mi SSE 4.6 mph - N/A   Overcast
12:35 PM 41.5 °F - 41.2 °F 99% 29.92 in 5.0 mi Calm Calm - N/A   Overcast
12:55 PM 41.9 °F 39.0 °F 41.5 °F 99% 29.91 in 2.0 mi SE 4.6 mph - N/A   Overcast
1:15 PM 41.9 °F - 41.7 °F 99% 29.91 in 1.8 mi Calm Calm - N/A   Overcast
1:35 PM 41.9 °F 40.0 °F 41.9 °F 100% 29.90 in 2.0 mi SSE 3.5 mph - N/A   Overcast
1:55 PM 42.1 °F - 42.1 °F 100% 29.89 in 1.8 mi Calm Calm - N/A   Overcast
2:15 PM 42.3 °F 37.9 °F 42.3 °F 100% 29.88 in 2.5 mi SSE 6.9 mph - N/A   Overcast
2:35 PM 42.6 °F 39.9 °F 42.6 °F 100% 29.89 in 2.0 mi SSE 4.6 mph - N/A   Overcast
2:55 PM 42.4 °F 40.7 °F 42.4 °F 100% 29.89 in 2.5 mi SSE 3.5 mph - N/A Rain Light Rain
3:15 PM 42.6 °F - 42.6 °F 100% 29.88 in 1.8 mi Calm Calm - N/A Rain Light Rain
3:35 PM 42.8 °F - 42.8 °F 100% 29.89 in 2.5 mi Calm Calm - N/A   Overcast
3:55 PM 43.0 °F - 43.0 °F 100% 29.88 in 2.0 mi Calm Calm - N/A   Overcast
4:15 PM 43.0 °F - 43.0 °F 100% 29.89 in 2.5 mi Calm Calm - N/A   Overcast
4:35 PM 43.0 °F - 43.0 °F 100% 29.89 in 1.0 mi Calm Calm - N/A   Overcast
4:55 PM 42.8 °F - 42.8 °F 100% 29.89 in 0.2 mi Calm Calm - N/A Fog Fog
5:15 PM 42.8 °F - 42.8 °F 100% 29.90 in 0.2 mi Calm Calm - N/A Fog Fog
5:35 PM 42.8 °F - 42.8 °F 100% 29.89 in 0.5 mi Calm Calm - N/A Fog Fog
5:55 PM 43.0 °F - 43.0 °F 100% 29.91 in 0.5 mi Calm Calm - N/A Fog Fog
6:15 PM 42.8 °F - 42.8 °F 100% 29.91 in 0.5 mi Calm Calm - N/A Fog Fog
6:35 PM 43.0 °F - 43.0 °F 100% 29.92 in 0.2 mi Calm Calm - N/A Fog Fog
6:55 PM 43.0 °F - 43.0 °F 100% 29.92 in 0.2 mi Calm Calm - N/A Fog Fog
7:15 PM 43.0 °F - 43.0 °F 100% 29.92 in 0.5 mi Calm Calm - N/A Fog Fog
7:35 PM 43.2 °F - 43.2 °F 100% 29.92 in 0.2 mi Calm Calm - N/A Fog Fog
7:55 PM 43.0 °F - 43.0 °F 100% 29.92 in 0.2 mi Calm Calm - N/A Fog Fog
8:15 PM 43.2 °F - 43.2 °F 100% 29.92 in 0.2 mi Calm Calm - N/A Fog Fog
8:35 PM 43.0 °F - 43.0 °F 100% 29.93 in 0.2 mi Calm Calm - N/A Fog Fog
8:55 PM 43.0 °F - 43.0 °F 100% 29.94 in 0.2 mi Calm Calm - N/A Fog Fog
9:15 PM 43.2 °F - 43.2 °F 100% 29.94 in 0.2 mi Calm Calm - N/A Fog Fog
9:35 PM 43.0 °F - 43.0 °F 100% 29.94 in 0.5 mi Calm Calm - N/A Fog Fog
9:55 PM 43.2 °F - 43.2 °F 100% 29.94 in 0.8 mi Calm Calm - 0.01 in   Overcast
10:15 PM 43.2 °F - 43.2 °F 100% 29.94 in 0.5 mi Calm Calm - N/A Fog Fog
10:35 PM 43.3 °F - 43.3 °F 100% 29.93 in 0.8 mi Calm Calm - N/A   Overcast
10:55 PM 43.3 °F - 43.3 °F 100% 29.94 in 0.5 mi Calm Calm - N/A Fog Fog
11:15 PM 43.3 °F 41.7 °F 43.3 °F 100% 29.94 in 0.5 mi NW 3.5 mph - N/A Fog Fog
11:35 PM 43.3 °F - 43.3 °F 100% 29.94 in 0.5 mi Calm Calm - N/A Fog Fog
11:55 PM 43.3 °F - 43.3 °F 100% 29.94 in 0.8 mi Calm Calm - N/A   Overcast